DateTimeUTC,F1_A11,F1_S11,BsB_S11,BsG_S11,BsR_S11,BbsB_S11,BbsG_S11,BbsR_S11,BaB_A11,BaG_A11,BaR_A11,Tu_S11,T_S11,Uu_S11,U_S11,P_S11,T1_A11
2021-11-02T00:00:00Z,00000200,21000000,,,,,,,-000.20,-000.06,-000.29,18.6,25.5,,00.0,0651.2,31.1
2021-11-02T00:01:00Z,00000200,21000000,,,,,,,0000.12,-000.10,-000.15,18.6,25.5,,00.0,0651.2,31.1
2021-11-02T00:02:00Z,00000200,21000000,,,,,,,0000.18,0000.04,0000.08,18.6,25.5,,00.0,0651.2,31.1
2021-11-02T00:03:00Z,00000200,61000000,,,,,,,-000.07,0000.22,-000.31,18.6,25.5,,00.0,0651.2,31.1
2021-11-02T00:04:00Z,00000200,41000000,0000.41,-000.09,0000.13,0000.21,-000.10,-000.32,-000.01,-000.54,-000.04,18.6,25.3,,00.0,0652.0,31.1
2021-11-02T00:05:00Z,00000200,01000000,0000.29,0000.07,-000.05,0000.70,-000.11,0000.08,-000.04,0000.01,0000.20,18.6,25.2,,00.0,0652.1,31.1
2021-11-02T00:06:00Z,00000200,01000000,0000.43,-000.32,0000.40,0000.64,0000.26,0000.09,-000.07,0000.44,-000.11,18.6,25.2,,00.0,0652.1,31.1
2021-11-02T00:07:00Z,00000200,01000000,-000.33,-000.11,-000.30,0000.47,-000.01,-000.29,0000.02,-000.36,0000.23,18.7,25.2,,00.0,0652.1,31.1
2021-11-02T00:08:00Z,00000200,01000000,-000.04,0000.18,-000.01,0000.15,0000.13,-000.10,-000.10,0000.14,-000.44,18.7,25.3,,00.0,0652.1,31.1
2021-11-02T00:09:00Z,00000200,01000000,0000.13,-000.15,0000.28,0000.77,0000.23,-000.01,-000.15,-000.11,0000.22,18.8,25.3,,00.0,0652.1,31.1
2021-11-02T00:10:00Z,00000200,01000000,0000.58,-000.11,0000.13,0000.30,0000.13,0000.07,0000.06,-000.17,-000.22,18.8,25.3,,00.0,0652.1,31.1
2021-11-02T00:11:00Z,00000200,01000000,-000.76,0000.17,-000.10,0000.62,0000.17,-000.22,-000.58,-000.01,-000.21,18.9,25.4,,00.0,0652.1,31.1
2021-11-02T00:12:00Z,00000200,01000000,-001.24,-000.07,-000.06,0000.20,-000.11,-000.10,0000.39,-000.18,0000.10,18.9,25.4,,00.0,0652.0,31.1
2021-11-02T00:13:00Z,00000200,01000000,-000.28,0000.22,-000.08,-000.14,0000.07,-000.04,-000.33,0000.17,-000.19,18.8,25.3,,00.0,0652.0,31.1
2021-11-02T00:14:00Z,00000200,01000000,-000.27,0000.07,-000.19,-000.41,-000.07,-000.13,-000.06,-000.22,0000.10,18.7,25.3,,00.0,0652.0,31.1
2021-11-02T00:15:00Z,00000200,01000000,-000.13,-000.08,0000.24,0000.96,-000.12,0000.11,-000.05,-000.50,-000.05,18.6,25.2,,00.0,0652.0,31.1
2021-11-02T00:16:00Z,00000200,01000000,-000.21,0000.34,-000.14,0000.35,0000.03,-000.10,-000.25,0000.03,-000.21,18.5,25.2,,00.0,0652.0,31.1
2021-11-02T00:17:00Z,00000200,01000000,0000.64,0000.11,-000.24,0000.32,0000.04,-000.18,-000.17,-000.14,-000.10,18.5,25.2,,00.0,0652.0,31.0
2021-11-02T00:18:00Z,00000200,01000000,-000.41,0000.25,0000.00,0000.43,0000.05,0000.03,-000.09,-000.35,-000.30,18.4,25.1,,00.0,0652.0,31.0
2021-11-02T00:19:00Z,00000200,01000000,-000.21,-000.01,0000.24,0000.78,0000.09,0000.02,-000.47,0000.01,-000.23,18.4,25.1,,00.0,0652.0,31.0
2021-11-02T00:20:00Z,00000200,01000000,-000.33,-000.22,-000.21,0000.49,0000.12,0000.25,0000.05,-000.11,0000.30,18.3,25.1,,00.0,0652.0,31.0
2021-11-02T00:21:00Z,00000200,01000000,-000.22,0000.01,-000.14,0000.60,-000.36,-000.01,0000.22,-000.05,-000.36,18.4,25.1,,00.0,0651.9,31.1
2021-11-02T00:22:00Z,00000200,01000000,0000.47,0000.06,0000.27,0000.25,-000.16,-000.00,0000.40,0000.34,0000.29,18.5,25.1,,00.0,0651.9,31.1
2021-11-02T00:23:00Z,00000200,01000000,0000.15,0000.12,0000.31,0000.24,0000.06,-000.01,-000.55,0000.07,0000.01,18.5,25.1,,00.0,0651.9,31.1
2021-11-02T00:24:00Z,00000200,01000000,-000.22,0000.01,0000.05,0000.61,0000.10,-000.11,0000.16,-000.13,-000.10,18.6,25.1,,00.0,0651.9,31.1
2021-11-02T00:25:00Z,00000200,01000000,-000.27,0000.06,0000.31,0000.91,0000.07,0000.15,0000.25,0000.18,0000.38,18.7,25.2,,00.0,0651.9,31.1
2021-11-02T00:26:00Z,00000200,01000000,0000.80,0000.17,0000.14,0000.29,-000.12,0000.27,-000.43,-000.08,-000.08,18.7,25.2,,00.0,0652.0,31.1
2021-11-02T00:27:00Z,00000200,01000000,0000.23,0000.15,0000.03,0000.99,0000.03,0000.26,0000.53,-000.21,-000.16,18.8,25.3,,00.0,0651.9,31.1
2021-11-02T00:28:00Z,00000200,01000000,-000.14,0000.06,0000.02,0000.59,-000.16,-000.09,-000.57,0000.49,0000.08,18.9,25.3,,00.0,0651.9,31.1
2021-11-02T00:29:00Z,00000200,01000000,0000.35,-000.13,0000.00,0000.24,0000.17,-000.00,0000.10,-000.41,-000.23,18.9,25.3,,00.0,0651.9,31.1
2021-11-02T00:30:00Z,00000200,01000000,0000.69,0000.38,-000.02,-000.16,-000.13,-000.07,-000.12,-000.18,-000.19,19.0,25.4,,00.0,0651.9,31.1
2021-11-02T00:31:00Z,00000200,01000000,0000.02,-000.20,0000.17,0000.22,0000.03,0000.28,-000.23,0000.17,0000.10,18.9,25.4,,00.0,0651.9,31.1
2021-11-02T00:32:00Z,00000200,01000000,0000.73,0000.37,-000.26,0000.40,-000.10,-000.36,-000.17,-000.53,-000.20,18.9,25.3,,00.0,0651.9,31.1
2021-11-02T00:33:00Z,00000200,01000000,0000.94,-000.02,-000.09,0000.96,-000.19,-000.15,-000.05,0000.14,-000.19,18.8,25.3,,00.0,0651.9,31.1
2021-11-02T00:34:00Z,00000200,01000000,0000.61,-000.10,0000.26,0000.19,-000.12,0000.05,-000.36,-000.44,0000.17,18.8,25.3,,00.0,0651.9,31.1
2021-11-02T00:35:00Z,00000200,01000000,0000.44,0000.24,0000.09,0000.06,-000.07,0000.07,0000.13,-000.47,-000.30,18.8,25.3,,00.0,0651.9,31.1
2021-11-02T00:36:00Z,00000200,01000000,0000.09,0000.43,-000.05,0000.48,-000.33,-000.21,-000.26,0000.16,0000.09,18.8,25.3,,00.0,0651.9,31.1
2021-11-02T00:37:00Z,00000200,01000000,-000.21,0000.18,0000.08,0000.49,0000.24,-000.11,0000.17,0000.02,-000.23,18.8,25.3,,00.0,0651.9,31.1
2021-11-02T00:38:00Z,00000200,01000000,-000.36,0000.11,0000.28,0000.45,0000.04,-000.06,-000.29,0000.05,0000.10,18.9,25.3,,00.0,0651.9,31.1
2021-11-02T00:39:00Z,00000200,01000000,-000.14,0000.35,0000.13,0000.27,0000.20,-000.01,-000.10,-000.32,-000.38,18.9,25.4,,00.0,0651.9,31.2
2021-11-02T00:40:00Z,00000200,01000000,-000.02,0000.16,0000.16,0000.28,-000.07,-000.32,-000.30,-000.08,0000.16,19.0,25.4,,00.0,0651.9,31.1
2021-11-02T00:41:00Z,00000200,01000000,0000.73,0000.06,0000.13,0000.50,0000.11,0000.04,-000.03,0000.34,-000.22,19.0,25.4,,00.0,0651.9,31.1
2021-11-02T00:42:00Z,00000200,01000000,0001.07,0000.03,0000.08,0000.64,-000.57,-000.00,0000.36,-000.23,0000.11,18.9,25.4,,00.0,0651.9,31.1
2021-11-02T00:43:00Z,00000200,01000000,0000.24,-000.38,-000.18,0000.50,0000.04,0000.26,-000.51,-000.25,-000.08,18.8,25.3,,00.0,0651.9,31.1
2021-11-02T00:44:00Z,00000200,01000000,-000.43,-000.06,-000.17,0000.08,0000.00,-000.39,0000.36,-000.08,0000.06,18.7,25.3,,00.0,0651.8,31.1
2021-11-02T00:45:00Z,00000200,01000000,0000.82,0000.18,0000.02,0000.29,0000.40,-000.28,-000.27,-000.01,-000.58,18.6,25.2,,00.0,0651.8,31.0
2021-11-02T00:46:00Z,00000200,01000000,-000.14,-000.04,0000.04,-000.32,-000.04,-000.13,-000.16,0000.36,0000.28,18.6,25.2,,00.0,0651.8,31.0
2021-11-02T00:47:00Z,00000200,01000000,0000.43,0000.13,0000.14,0000.46,0000.26,0000.05,-000.10,-000.53,-000.14,18.5,25.1,,00.0,0651.8,31.0
2021-11-02T00:48:00Z,00000200,01000000,0000.46,0000.26,0000.27,0000.65,-000.22,0000.10,0000.10,0000.06,-000.47,18.4,25.1,,00.0,0651.8,31.0
2021-11-02T00:49:00Z,00000200,01000000,0000.17,-000.15,0000.25,0000.46,-000.00,-000.27,-000.33,-000.41,-000.00,18.4,25.1,,00.0,0651.8,31.0
2021-11-02T00:50:00Z,00000200,01000000,0000.52,0000.10,-000.03,0000.09,0000.06,-000.27,0000.18,0000.25,0000.43,18.4,25.1,,00.0,0651.8,31.1
2021-11-02T00:51:00Z,00000200,01000000,0000.47,0000.47,0000.14,0000.42,0000.05,-000.28,0000.05,0000.02,0000.04,18.4,25.1,,00.0,0651.8,31.1
2021-11-02T00:52:00Z,00000200,01000000,-000.31,0000.24,0000.01,0000.31,0000.11,0000.04,0000.11,-000.05,-000.03,18.5,25.1,,00.0,0651.8,31.1
2021-11-02T00:53:00Z,00000200,01000000,-000.11,0000.28,-000.10,0001.19,-000.03,-000.01,-000.32,-000.15,-000.33,18.5,25.1,,00.0,0651.8,31.1
2021-11-02T00:54:00Z,00000200,01000000,0000.09,-000.23,-000.03,0000.31,0000.14,0000.03,0000.03,-000.21,0000.21,18.6,25.1,,00.0,0651.8,31.1
2021-11-02T00:55:00Z,00000200,01000000,0000.32,0000.06,-000.07,0000.91,0000.18,0000.11,-000.23,-000.13,-000.33,18.6,25.2,,00.0,0651.8,31.1
2021-11-02T00:56:00Z,00000200,01000000,-000.12,0000.05,0000.07,0000.52,-000.14,-000.06,0000.03,0000.33,0000.01,18.7,25.2,,00.0,0651.8,31.1
2021-11-02T00:57:00Z,00000200,41000000,,,,,,,0002.17,0001.95,0001.57,18.8,25.3,,00.0,0651.8,31.1
2021-11-02T00:58:00Z,00000200,61000000,,,,,,,-000.69,-000.60,-000.50,18.6,25.4,,00.0,0650.9,31.1
2021-11-02T00:59:00Z,00000200,21000000,,,,,,,-000.55,-000.43,-000.14,18.6,25.5,,00.0,0650.9,31.1
